TimePDT,TemperatureF,Dew PointF,Humidity,Sea Level PressureIn,VisibilityMPH,Wind Direction,Wind SpeedMPH,Gust SpeedMPH,PrecipitationIn,Events,Conditions,WindDirDegrees,DateUTC
12:56 AM,45.0,42.1,90,30.07,10.0,Calm,Calm,-,N/A,,Clear,0,2013-05-09 07:56:00
1:56 AM,43.0,41.0,93,30.08,10.0,Calm,Calm,-,N/A,,Clear,0,2013-05-09 08:56:00
2:56 AM,42.1,39.0,89,30.10,10.0,Calm,Calm,-,N/A,,Clear,0,2013-05-09 09:56:00
3:56 AM,39.9,37.9,93,30.11,10.0,Calm,Calm,-,N/A,,Clear,0,2013-05-09 10:56:00
4:56 AM,39.0,37.0,93,30.11,10.0,Calm,Calm,-,N/A,,Clear,0,2013-05-09 11:56:00
5:56 AM,37.9,36.0,93,30.13,10.0,Calm,Calm,-,N/A,,Clear,0,2013-05-09 12:56:00
6:56 AM,44.1,39.0,82,30.14,10.0,Calm,Calm,-,N/A,,Clear,0,2013-05-09 13:56:00
7:56 AM,55.9,45.0,67,30.12,10.0,Calm,Calm,-,N/A,,Clear,0,2013-05-09 14:56:00
8:56 AM,66.0,46.0,48,30.12,10.0,Calm,Calm,-,N/A,,Clear,0,2013-05-09 15:56:00
9:56 AM,72.0,45.0,38,30.11,10.0,Calm,Calm,-,N/A,,Clear,0,2013-05-09 16:56:00
10:56 AM,73.9,43.0,33,30.12,10.0,Variable,3.5,-,N/A,,Clear,0,2013-05-09 17:56:00
11:56 AM,75.9,41.0,29,30.12,10.0,Variable,4.6,-,N/A,,Clear,0,2013-05-09 18:56:00
12:56 PM,77.0,45.0,32,30.12,10.0,Variable,4.6,-,N/A,,Clear,0,2013-05-09 19:56:00
1:56 PM,77.0,41.0,28,30.12,10.0,Variable,4.6,-,N/A,,Clear,0,2013-05-09 20:56:00
2:56 PM,75.9,43.0,31,30.11,10.0,Variable,3.5,-,N/A,,Clear,0,2013-05-09 21:56:00
3:56 PM,77.0,44.1,31,30.10,10.0,Variable,5.8,-,N/A,,Clear,0,2013-05-09 22:56:00
4:56 PM,77.0,42.1,29,30.11,10.0,Variable,4.6,-,N/A,,Clear,0,2013-05-09 23:56:00
5:56 PM,75.0,39.9,28,30.11,10.0,Variable,4.6,-,N/A,,Clear,0,2013-05-10 00:56:00
6:56 PM,73.0,37.9,28,30.10,10.0,Calm,Calm,-,N/A,,Clear,0,2013-05-10 01:56:00
7:56 PM,64.9,41.0,42,30.11,10.0,Calm,Calm,-,N/A,,Clear,0,2013-05-10 02:56:00
8:56 PM,57.0,45.0,64,30.12,10.0,Calm,Calm,-,N/A,,Clear,0,2013-05-10 03:56:00
9:56 PM,52.0,44.1,74,30.14,10.0,Calm,Calm,-,N/A,,Clear,0,2013-05-10 04:56:00
10:56 PM,48.0,43.0,83,30.14,10.0,Calm,Calm,-,N/A,,Clear,0,2013-05-10 05:56:00
11:56 PM,45.0,41.0,86,30.15,10.0,Calm,Calm,-,N/A,,Clear,0,2013-05-10 06:56:00